• In Czech Republic
  • List of Countries
  • For 7 days
  • Water Temperature
  • Satellite Maps
  • Weather Map
  • Weather Widgets
  • user-avatar
    Login

    Hourly Weather Nijlen

    Today, 22 October, Sunday

    Time Temperature Precipitation Wind Pressure Humidity
    00:00 +10°C° 0 mm 9 mps 756 mmHg 68%
    01:00 +10°C° 0.8 mm 9 mps 755 mmHg 73%
    02:00 +10°C° 0.8 mm 9 mps 755 mmHg 78%
    03:00 +8°C° 0.8 mm 10 mps 755 mmHg 82%
    04:00 +10°C° 1 mm 9 mps 755 mmHg 84%
    05:00 +10°C° 1 mm 8 mps 755 mmHg 85%
    06:00 +10°C° 1 mm 8 mps 756 mmHg 86%
    07:00 +10°C° 0.4 mm 8 mps 756 mmHg 83%
    08:00 +11°C° 0.4 mm 7 mps 757 mmHg 79%
    09:00 +11°C° 0.4 mm 7 mps 757 mmHg 76%
    10:00 +11°C° 0.1 mm 7 mps 757 mmHg 72%
    11:00 +11°C° 0.1 mm 8 mps 758 mmHg 69%
    12:00 +12°C° 0.1 mm 8 mps 758 mmHg 65%
    13:00 +11°C° 0.1 mm 7 mps 758 mmHg 66%
    14:00 +11°C° 0.1 mm 7 mps 758 mmHg 66%
    15:00 +11°C° 0.1 mm 7 mps 759 mmHg 67%
    16:00 +10°C° 0.3 mm 6 mps 759 mmHg 70%
    17:00 +10°C° 0.3 mm 6 mps 759 mmHg 73%
    18:00 +9°C° 0.3 mm 5 mps 760 mmHg 76%
    19:00 +9°C° 0.3 mm 5 mps 760 mmHg 75%
    20:00 +10°C° 0.3 mm 5 mps 760 mmHg 75%
    21:00 +10°C° 0.3 mm 5 mps 761 mmHg 75%
    22:00 +9°C° 0 mm 5 mps 761 mmHg 76%
    23:00 +9°C° 0 mm 5 mps 761 mmHg 77%

    Tomorrow, 23 October, Monday

    Time Temperature Precipitation Wind Pressure Humidity
    00:00 +9°C° 0 mm 5 mps 762 mmHg 78%
    01:00 +9°C° 0 mm 5 mps 762 mmHg 79%
    02:00 +9°C° 0 mm 5 mps 762 mmHg 81%
    03:00 +9°C° 0 mm 5 mps 762 mmHg 82%
    04:00 +9°C° 0.1 mm 5 mps 763 mmHg 83%
    05:00 +10°C° 0.1 mm 4 mps 763 mmHg 85%
    06:00 +10°C° 0.1 mm 4 mps 763 mmHg 86%
    07:00 +10°C° 0 mm 5 mps 763 mmHg 84%
    08:00 +10°C° 0 mm 5 mps 763 mmHg 81%
    09:00 +12°C° 0 mm 5 mps 764 mmHg 79%
    10:00 +13°C° 0 mm 5 mps 764 mmHg 78%
    11:00 +13°C° 0 mm 5 mps 764 mmHg 77%
    12:00 +14°C° 0 mm 5 mps 764 mmHg 77%
    13:00 +14°C° 0.2 mm 5 mps 764 mmHg 79%
    14:00 +14°C° 0.2 mm 4 mps 764 mmHg 82%
    15:00 +14°C° 0.2 mm 4 mps 764 mmHg 85%
    16:00 +13°C° 0.3 mm 4 mps 764 mmHg 87%
    17:00 +13°C° 0.3 mm 4 mps 764 mmHg 90%
    18:00 +13°C° 0.3 mm 4 mps 765 mmHg 92%
    19:00 +13°C° 0.1 mm 4 mps 765 mmHg 92%
    20:00 +13°C° 0.1 mm 4 mps 765 mmHg 93%
    21:00 +13°C° 0.1 mm 4 mps 765 mmHg 93%
    22:00 +13°C° 0.1 mm 4 mps 765 mmHg 93%
    23:00 +13°C° 0.1 mm 4 mps 765 mmHg 93%

    Day after tomorrow, 24 October, Tuesday

    Time Temperature Precipitation Wind Pressure Humidity
    00:00 +13°C° 0.1 mm 4 mps 765 mmHg 93%
    01:00 +13°C° 0.1 mm 4 mps 765 mmHg 93%
    02:00 +13°C° 0.1 mm 4 mps 765 mmHg 94%
    03:00 +13°C° 0.1 mm 4 mps 765 mmHg 94%
    04:00 +13°C° 0.3 mm 4 mps 765 mmHg 94%
    05:00 +14°C° 0.3 mm 4 mps 764 mmHg 94%
    06:00 +14°C° 0.3 mm 4 mps 764 mmHg 94%
    07:00 +14°C° 0.2 mm 4 mps 765 mmHg 94%
    08:00 +15°C° 0.2 mm 5 mps 765 mmHg 94%
    09:00 +15°C° 0.2 mm 5 mps 765 mmHg 93%
    10:00 +15°C° 0.8 mm 5 mps 765 mmHg 93%
    11:00 +16°C° 0.8 mm 5 mps 765 mmHg 92%
    12:00 +16°C° 0.8 mm 5 mps 765 mmHg 91%
    13:00 +16°C° 0.1 mm 5 mps 765 mmHg 90%
    14:00 +16°C° 0.1 mm 5 mps 765 mmHg 90%
    15:00 +16°C° 0.1 mm 5 mps 765 mmHg 89%
    16:00 +16°C° 0 mm 5 mps 765 mmHg 89%
    17:00 +17°C° 0 mm 4 mps 766 mmHg 90%
    18:00 +15°C° 0 mm 4 mps 766 mmHg 91%
    19:00 +15°C° 0 mm 4 mps 766 mmHg 91%
    20:00 +15°C° 0 mm 4 mps 766 mmHg 91%
    21:00 +15°C° 0 mm 4 mps 766 mmHg 91%
    22:00 +14°C° 0 mm 4 mps 766 mmHg 92%
    23:00 +14°C° 0 mm 4 mps 766 mmHg 93%

    25 October, Wednesday

    Time Temperature Precipitation Wind Pressure Humidity
    00:00 +13°C° 0 mm 4 mps 766 mmHg 94%
    01:00 +13°C° 0 mm 4 mps 765 mmHg 94%
    02:00 +13°C° 0 mm 4 mps 765 mmHg 94%
    03:00 +13°C° 0 mm 5 mps 765 mmHg 94%
    04:00 +13°C° 0 mm 5 mps 765 mmHg 94%
    05:00 +13°C° 0 mm 5 mps 765 mmHg 93%
    06:00 +13°C° 0 mm 5 mps 765 mmHg 93%
    07:00 +14°C° 0 mm 5 mps 765 mmHg 90%
    08:00 +15°C° 0 mm 6 mps 765 mmHg 86%
    09:00 +15°C° 0 mm 6 mps 765 mmHg 82%
    10:00 +16°C° 0 mm 6 mps 765 mmHg 78%
    11:00 +17°C° 0 mm 6 mps 765 mmHg 74%
    12:00 +19°C° 0 mm 6 mps 765 mmHg 69%
    13:00 +19°C° 0 mm 5 mps 766 mmHg 71%
    14:00 +19°C° 0 mm 4 mps 766 mmHg 73%
    15:00 +18°C° 0 mm 4 mps 766 mmHg 75%
    16:00 +17°C° 0 mm 3 mps 766 mmHg 79%
    17:00 +16°C° 0 mm 3 mps 767 mmHg 84%
    18:00 +15°C° 0 mm 2 mps 767 mmHg 88%
    19:00 +15°C° 0 mm 2 mps 768 mmHg 89%
    20:00 +15°C° 0 mm 2 mps 768 mmHg 89%
    21:00 +15°C° 0 mm 2 mps 768 mmHg 89%
    22:00 +15°C° 0 mm 2 mps 768 mmHg 90%
    23:00 +15°C° 0 mm 2 mps 769 mmHg 91%

    26 October, Thursday

    Time Temperature Precipitation Wind Pressure Humidity
    00:00 +15°C° 0 mm 2 mps 769 mmHg 92%
    01:00 +15°C° 0 mm 2 mps 769 mmHg 92%
    02:00 +15°C° 0 mm 2 mps 769 mmHg 92%
    03:00 +14°C° 0 mm 2 mps 769 mmHg 92%
    04:00 +14°C° 0 mm 2 mps 769 mmHg 92%
    05:00 +14°C° 0 mm 2 mps 769 mmHg 91%
    06:00 +14°C° 0 mm 2 mps 769 mmHg 91%
    07:00 +15°C° 0 mm 2 mps 769 mmHg 89%
    08:00 +15°C° 0 mm 2 mps 769 mmHg 88%
    09:00 +16°C° 0 mm 2 mps 769 mmHg 86%
    10:00 +16°C° 0 mm 2 mps 769 mmHg 84%
    11:00 +17°C° 0 mm 2 mps 769 mmHg 83%
    12:00 +17°C° 0 mm 2 mps 769 mmHg 82%
    13:00 +17°C° 0 mm 2 mps 768 mmHg 82%
    14:00 +18°C° 0 mm 2 mps 768 mmHg 82%
    15:00 +19°C° 0 mm 1 mps 768 mmHg 81%
    16:00 +18°C° 0 mm 1 mps 768 mmHg 84%
    17:00 +16°C° 0 mm 1 mps 768 mmHg 87%
    18:00 +16°C° 0 mm 1 mps 767 mmHg 90%
    19:00 +15°C° 0 mm 1 mps 767 mmHg 90%
    20:00 +15°C° 0 mm 2 mps 767 mmHg 90%
    21:00 +14°C° 0 mm 2 mps 767 mmHg 91%
    22:00 +14°C° 0 mm 2 mps 767 mmHg 90%
    23:00 +12°C° 0 mm 3 mps 766 mmHg 90%

    27 October, Friday

    Time Temperature Precipitation Wind Pressure Humidity
    00:00 +12°C° 0 mm 3 mps 766 mmHg 89%
    01:00 +12°C° 0 mm 3 mps 765 mmHg 90%
    02:00 +12°C° 0 mm 3 mps 765 mmHg 90%
    03:00 +12°C° 0 mm 3 mps 764 mmHg 90%
    04:00 +12°C° 0 mm 4 mps 763 mmHg 91%
    05:00 +12°C° 0 mm 4 mps 763 mmHg 92%
    06:00 +12°C° 0 mm 4 mps 762 mmHg 93%
    07:00 +13°C° 0 mm 5 mps 762 mmHg 90%
    08:00 +14°C° 0 mm 5 mps 762 mmHg 88%
    09:00 +15°C° 0 mm 6 mps 762 mmHg 85%
    10:00 +15°C° 0.1 mm 6 mps 761 mmHg 84%
    11:00 +15°C° 0.1 mm 7 mps 761 mmHg 82%
    12:00 +15°C° 0.1 mm 7 mps 761 mmHg 81%
    13:00 +15°C° 0.1 mm 7 mps 762 mmHg 81%
    14:00 +14°C° 0.1 mm 7 mps 762 mmHg 81%
    15:00 +14°C° 0.1 mm 6 mps 762 mmHg 81%
    16:00 +13°C° 0.1 mm 5 mps 763 mmHg 82%
    17:00 +12°C° 0.1 mm 4 mps 763 mmHg 84%
    18:00 +11°C° 0.1 mm 3 mps 764 mmHg 86%
    19:00 +10°C° 0 mm 3 mps 764 mmHg 87%
    20:00 +10°C° 0 mm 2 mps 764 mmHg 88%
    21:00 +9°C° 0 mm 2 mps 765 mmHg 89%
    22:00 +9°C° 0 mm 2 mps 764 mmHg 90%
    23:00 +9°C° 0 mm 3 mps 764 mmHg 91%
    Show more